Weather History for York, PA

Change the Weather History Date:

Monday, March 25, 2013

  Actual Average Record
Temperature  
Mean Temperature 34 °F -  
Max Temperature 37 °F 0 °F 72 °F (2003)
Min Temperature 32 °F - 21 °F (1998)
Degree Days  
Heating Degree Days 30    
Moisture  
Dew Point 30 °F    
Average Humidity 86    
Maximum Humidity 93    
Minimum Humidity 59    
Precipitation  
Precipitation 0.02 in - - ()
Sea Level Pressure  
Sea Level Pressure 29.56 in    
Wind  
Wind Speed 5 mph (NNE)    
Max Wind Speed 9 mph    
Max Gust Speed -    
Visibility 3 miles    
Events Fog , Snow    
Averages and records for this station are not official NWS values.
T = Trace of Precipitation, MM = Missing Value Source: NWS Daily Summary

Daily Weather History Graph

Daily Weather History Graph

Search for Another Location

Airport:

Trip Planner

Search our weather history database for the weather conditions in past years. The results will help you decide how hot, cold, wet, or windy it might be!

Date:

Astronomy

Mar. 25, 2013 Rise Set
Actual Time 7:02 AM EDT 7:24 PM EDT
Civil Twilight 6:35 AM EDT 7:51 PM EDT
Nautical Twilight 6:03 AM EDT 8:23 PM EDT
Astronomical Twilight 5:31 AM EDT 8:56 PM EDT
Moon 5:54 PM EDT (3/25) 5:44 AM EDT (3/25)
Length of Visible Light 13h 16m
Length of Day
12h 22m
Waxing Gibbous, 96% of the Moon is Illuminated
Mar 25
Waxing Gibbous
Mar 27
Full
Apr 3
Last Quarter
Apr 10
New
Apr 18
First Quarter

Hourly Weather History & Observations

Time (EDT) Temp. Windchill Dew Point Humidity Pressure Visibility Wind Dir Wind Speed Gust Speed Precip Events Conditions
12:53 AM 37.0 °F 30.4 °F 24.1 °F 59% 29.65 in 10.0 mi ESE 9.2 mph - N/A   Overcast
1:53 AM 35.1 °F 30.1 °F 27.0 °F 72% 29.62 in 10.0 mi East 5.8 mph - N/A   Overcast
2:53 AM 35.1 °F 31.0 °F 25.0 °F 67% 29.59 in 10.0 mi East 4.6 mph - N/A   Overcast
3:53 AM 36.0 °F 33.3 °F 24.1 °F 62% 29.59 in 10.0 mi ESE 3.5 mph - N/A   Overcast
4:34 AM 33.8 °F 29.6 °F 26.6 °F 75% 29.60 in 2.0 mi West 4.6 mph - 0.00 in Snow Light Snow
4:40 AM 33.8 °F 29.6 °F 26.6 °F 75% 29.60 in 1.8 mi West 4.6 mph - 0.00 in Snow Light Snow
4:53 AM 32.0 °F 28.7 °F 28.0 °F 85% 29.62 in 0.8 mi West 3.5 mph - 0.01 in Snow Light Snow
5:01 AM 32.0 °F - 28.4 °F 87% 29.60 in 0.5 mi Calm Calm - 0.01 in Fog , Snow Snow
5:12 AM 32.0 °F - 30.2 °F 93% 29.59 in 0.5 mi Calm Calm - 0.01 in Fog , Snow Snow
5:48 AM 32.0 °F 28.7 °F 28.4 °F 87% 29.57 in 1.0 mi NNE 3.5 mph - 0.01 in Snow Light Snow
5:53 AM 32.0 °F - 28.9 °F 88% 29.59 in 1.0 mi Calm Calm - 0.01 in Snow Light Snow
6:06 AM 32.0 °F 28.7 °F 30.2 °F 93% 29.57 in 0.8 mi North 3.5 mph - 0.00 in Snow Light Snow
6:26 AM 32.0 °F 28.7 °F 30.2 °F 93% 29.56 in 0.5 mi NE 3.5 mph - 0.00 in Fog , Snow Snow
6:34 AM 32.0 °F 28.7 °F 30.2 °F 93% 29.56 in 0.5 mi NE 3.5 mph - 0.00 in Fog , Snow Snow
6:53 AM 32.0 °F 27.5 °F 30.0 °F 92% 29.58 in 0.5 mi NNE 4.6 mph - 0.00 in Fog , Snow Snow
7:25 AM 32.0 °F 26.4 °F 30.2 °F 93% 29.56 in 0.5 mi NE 5.8 mph - 0.00 in Fog , Snow Snow
7:44 AM 32.0 °F 27.5 °F 30.2 °F 93% 29.56 in 0.2 mi NE 4.6 mph - 0.00 in Fog , Snow Snow
7:53 AM 32.0 °F 27.5 °F 30.0 °F 92% 29.57 in 0.2 mi NE 4.6 mph - 0.00 in Fog , Snow Heavy Snow
8:16 AM 32.0 °F 26.4 °F 30.2 °F 93% 29.56 in 0.5 mi NE 5.8 mph - 0.00 in Fog , Snow Snow
8:53 AM 32.0 °F 26.4 °F 30.0 °F 92% 29.57 in 0.5 mi NE 5.8 mph - 0.00 in Fog , Snow Snow
9:53 AM 33.1 °F 26.9 °F 30.0 °F 89% 29.55 in 0.8 mi NE 6.9 mph - 0.00 in Snow Light Snow
10:05 AM 33.8 °F 27.7 °F 30.2 °F 87% 29.53 in 1.2 mi ENE 6.9 mph - 0.00 in Snow Light Snow
10:19 AM 33.8 °F 27.7 °F 30.2 °F 87% 29.53 in 1.0 mi NE 6.9 mph - 0.00 in Snow Light Snow
10:31 AM 33.8 °F 27.7 °F 30.2 °F 87% 29.53 in 1.2 mi NE 6.9 mph - 0.00 in Snow Light Snow
10:39 AM 33.8 °F 28.6 °F 30.2 °F 87% 29.53 in 1.0 mi NE 5.8 mph - 0.00 in Snow Light Snow
10:53 AM 33.1 °F 26.9 °F 30.0 °F 89% 29.54 in 1.0 mi NE 6.9 mph - 0.00 in Snow Light Snow
11:11 AM 33.8 °F 28.6 °F 30.2 °F 87% 29.52 in 0.8 mi NE 5.8 mph - 0.00 in Snow Light Snow
11:15 AM 33.8 °F 28.6 °F 30.2 °F 87% 29.52 in 1.0 mi NE 5.8 mph - 0.00 in Snow Light Snow
11:23 AM 33.8 °F 28.6 °F 30.2 °F 87% 29.52 in 0.8 mi ENE 5.8 mph - 0.00 in Snow Light Snow
11:34 AM 33.8 °F 29.6 °F 30.2 °F 87% 29.52 in 0.8 mi NE 4.6 mph - 0.00 in Snow Light Snow
11:48 AM 33.8 °F 29.6 °F 30.2 °F 87% 29.52 in 1.0 mi NE 4.6 mph - 0.00 in Snow Light Snow
11:53 AM 34.0 °F 31.0 °F 30.9 °F 89% 29.54 in 1.2 mi ENE 3.5 mph - 0.00 in Snow Light Snow
12:01 PM 33.8 °F 29.6 °F 30.2 °F 87% 29.52 in 1.2 mi ENE 4.6 mph - 0.00 in Snow Light Snow
12:07 PM 33.8 °F 30.8 °F 30.2 °F 87% 29.52 in 0.8 mi NNE 3.5 mph - 0.00 in Snow Light Snow
12:15 PM 33.8 °F 29.6 °F 30.2 °F 87% 29.52 in 1.0 mi NE 4.6 mph - 0.00 in Snow Light Snow
12:25 PM 33.8 °F 30.8 °F 30.2 °F 87% 29.52 in 0.8 mi NE 3.5 mph - 0.00 in Snow Light Snow
12:38 PM 33.8 °F 30.8 °F 30.2 °F 87% 29.52 in 0.8 mi NNE 3.5 mph - 0.00 in Snow Light Snow
12:53 PM 34.0 °F 29.8 °F 30.9 °F 89% 29.54 in 0.8 mi NNE 4.6 mph - 0.00 in Snow Light Snow
1:08 PM 33.8 °F 28.6 °F 30.2 °F 87% 29.52 in 1.0 mi North 5.8 mph - 0.00 in Snow Light Snow
1:19 PM 33.8 °F 29.6 °F 30.2 °F 87% 29.52 in 1.0 mi NNE 4.6 mph - 0.00 in Snow Light Snow
1:31 PM 33.8 °F 29.6 °F 30.2 °F 87% 29.52 in 1.0 mi North 4.6 mph - 0.00 in Snow Light Snow
1:36 PM 33.8 °F 30.8 °F 30.2 °F 87% 29.52 in 0.8 mi North 3.5 mph - 0.00 in Snow Light Snow
1:46 PM 33.8 °F 29.6 °F 30.2 °F 87% 29.52 in 0.8 mi North 4.6 mph - 0.00 in Snow Light Snow
1:53 PM 34.0 °F 28.8 °F 30.9 °F 89% 29.54 in 0.8 mi North 5.8 mph - 0.00 in Snow Light Snow
2:16 PM 33.8 °F 29.6 °F 30.2 °F 87% 29.52 in 1.0 mi North 4.6 mph - 0.00 in Snow Light Snow
2:34 PM 33.8 °F 27.7 °F 30.2 °F 87% 29.52 in 1.5 mi North 6.9 mph - 0.00 in Snow Light Snow
2:45 PM 35.6 °F 31.7 °F 30.2 °F 81% 29.52 in 2.0 mi North 4.6 mph - 0.00 in Snow Light Snow
2:50 PM 35.6 °F 31.7 °F 30.2 °F 81% 29.52 in 2.5 mi North 4.6 mph - 0.00 in Snow Light Snow
2:53 PM 35.1 °F 31.0 °F 30.9 °F 85% 29.54 in 3.0 mi North 4.6 mph - 0.00 in Snow Light Snow
3:09 PM 33.8 °F 27.7 °F 30.2 °F 87% 29.52 in 2.5 mi North 6.9 mph - 0.00 in Snow Light Snow
3:12 PM 35.6 °F 30.7 °F 30.2 °F 81% 29.52 in 2.0 mi North 5.8 mph - 0.00 in Snow Light Snow
3:18 PM 35.6 °F 31.7 °F 30.2 °F 81% 29.52 in 3.0 mi North 4.6 mph - 0.00 in Snow Light Snow
3:26 PM 35.6 °F 31.7 °F 30.2 °F 81% 29.52 in 2.0 mi North 4.6 mph - 0.00 in Snow Light Snow
3:32 PM 35.6 °F 31.7 °F 30.2 °F 81% 29.52 in 1.8 mi North 4.6 mph - 0.00 in Snow Light Snow
3:36 PM 35.6 °F 32.8 °F 30.2 °F 81% 29.53 in 2.0 mi NNW 3.5 mph - 0.00 in Snow Light Snow
3:40 PM 33.8 °F 28.6 °F 30.2 °F 87% 29.53 in 1.8 mi NW 5.8 mph - 0.00 in Snow Light Snow
3:53 PM 34.0 °F 28.8 °F 30.9 °F 89% 29.55 in 1.2 mi North 5.8 mph - 0.00 in Snow Light Snow
4:24 PM 35.6 °F 30.7 °F 30.2 °F 81% 29.54 in 2.5 mi North 5.8 mph - 0.00 in Snow Light Snow
4:30 PM 35.6 °F 30.7 °F 32.0 °F 87% 29.54 in 3.0 mi North 5.8 mph - 0.00 in Snow Light Snow
4:53 PM 35.1 °F 31.0 °F 30.9 °F 85% 29.56 in 6.0 mi North 4.6 mph - 0.00 in Snow Light Snow
4:57 PM 35.6 °F 31.7 °F 30.2 °F 81% 29.55 in 7.0 mi North 4.6 mph - 0.00 in Snow Light Snow
5:49 PM 35.6 °F 32.8 °F 30.2 °F 81% 29.56 in 10.0 mi North 3.5 mph - 0.00 in   Overcast
5:53 PM 35.1 °F 32.2 °F 30.9 °F 85% 29.58 in 10.0 mi North 3.5 mph - 0.00 in   Overcast
6:10 PM 35.6 °F 32.8 °F 30.2 °F 81% 29.57 in 10.0 mi NW 3.5 mph - N/A   Overcast
6:53 PM 34.0 °F 29.8 °F 30.9 °F 89% 29.61 in 10.0 mi WNW 4.6 mph - N/A   Overcast
7:53 PM 34.0 °F 28.8 °F 30.9 °F 89% 29.64 in 8.0 mi NW 5.8 mph - 0.00 in   Overcast
8:53 PM 33.1 °F 30.0 °F 30.9 °F 92% 29.66 in 7.0 mi West 3.5 mph - 0.00 in   Overcast
9:53 PM 33.1 °F 28.7 °F 30.9 °F 92% 29.67 in 7.0 mi West 4.6 mph - N/A   Overcast
10:53 PM 33.1 °F 28.7 °F 30.9 °F 92% 29.69 in 6.0 mi West 4.6 mph - N/A   Overcast
11:53 PM 33.1 °F 28.7 °F 30.0 °F 89% 29.69 in 8.0 mi West 4.6 mph - N/A   Overcast